Home > Weather > Chula Vista > Past weeks

Flag for USA Weather for the Past 2 Weeks in Chula Vista, California, USA

Now
56 °F

Clear.


Feels Like: 56 °F
Forecast: 56 / 71 °F
Wind: No wind

Location: Brown Field Municipal Airport

Current Time: May 3, 2016 at 2:14:55 AM

Latest Report: May 3, 2016 at 12:53 AM


Visibility: 7 mi

Pressure: 29.98 "Hg

Humidity: 93%

Dew Point: 54 °F

Location of Chula VistaLocation

Historic Weather in Chula Vista — Graph

°F

Chula Vista Temperature Yesterday

Maximum temperature yesterday: 70 °F (at 11:53 AM)
Minimum temperature yesterday: 52 °F (at 2:53 AM)
Average temperature yesterday: 60 °F

High & Low Weather Summary for the Past Weeks

 TemperatureHumidityPressure
High89 °F (Apr 18, 1:53 PM)93% (Apr 22, 3:53 AM)30.05 "Hg (Apr 22, 3:53 AM)
Low49 °F (Apr 27, 2:53 AM)9% (Apr 18, 11:53 AM)29.78 "Hg (Apr 30, 3:53 PM)
Average62 °F62%29.93 "Hg
* Reported Apr 18 12:53 AM — May 3 12:53 AM, Chula Vista, Weather by CustomWeather, © 2016

Note: Actual official high and low records may vary slightly from our data, if they occured in-between our weather recording intervals... More about our weather records

Advertising

Chula Vista Weather History for the Previous 24 Hours

Scroll right to see more
 ConditionsComfort  
Time TempWeatherWind HumidityBarometerVisibility
12:53 AM
Tue, May 3
56 °FClear.No wind93%29.98 "Hg7 mi
11:53 PM
Mon, May 2
57 °FClear.No wind93%29.98 "Hg9 mi
10:53 PM57 °FPassing clouds.No wind93%29.99 "Hg8 mi
9:53 PM58 °FOvercast.5 mph93%30.00 "Hg9 mi
9:02 PM58 °FPassing clouds.6 mph93%30.00 "Hg9 mi
8:53 PM58 °FPassing clouds.6 mph90%29.99 "Hg9 mi
7:53 PM59 °FSunny.5 mph87%29.97 "Hg10 mi
6:53 PM62 °FSunny.6 mph78%29.96 "Hg10 mi
5:53 PM64 °FSunny.8 mph73%29.96 "Hg10 mi
4:53 PM65 °FSunny.8 mph70%29.96 "Hg10 mi
3:53 PM67 °FSunny.8 mph66%29.96 "Hg10 mi
2:53 PM67 °FSunny.12 mph66%29.98 "Hg10 mi
1:53 PM68 °FSunny.12 mph63%29.98 "Hg9 mi
12:53 PM70 °FSunny.13 mph59%29.98 "Hg10 mi
11:53 AM70 °FSunny.9 mph59%29.99 "Hg10 mi
10:53 AM68 °FSunny.5 mph61%30.01 "Hg10 mi
9:53 AM67 °FSunny.5 mph61%30.02 "Hg10 mi
8:53 AM62 °FSunny.6 mph70%30.02 "Hg10 mi
7:53 AM59 °FSunny.3 mph78%30.01 "Hg10 mi
6:53 AM55 °FClear.No wind90%29.99 "Hg8 mi
5:53 AM52 °FClear.No wind93%29.97 "Hg9 mi
4:53 AM53 °FClear.3 mph89%29.97 "Hg10 mi
3:53 AM52 °FClear.5 mph93%29.98 "Hg9 mi
2:53 AM52 °FClear.3 mph89%29.99 "Hg10 mi
Weather by CustomWeather, © 2016

See weather overviewHow to use our weather pages